Tracking 27112 objects as of 27-Mar-2023
HD Live streaming from Space Station
objects crossing your sky now

SL-16 DEB

Track SL-16 DEB now!
10-day predictions


NORAD ID: 22500
Int'l Code: 1992-093GK
Perigee: 770.1 km
Apogee: 859.0 km
Inclination: 70.8 °
Period: 101.0 minutes
Semi major axis: 7185 km
RCS: 0.008 m2 (small)
Launch date: December 25, 1992
Source: Commonwealth of Independent States (former USSR) (CIS)
Launch site: TYURATAM MISSILE AND SPACE COMPLEX (TTMTR)

Note: This is SATELLITE DEBRIS
Your satellite tracking list
Your tracking list is empty




NASA's NSSDC Master Catalog

Two Line Element Set (TLE):
1 22500U 92093GK  23085.34265380  .00001919  00000-0  81871-3 0  9999
2 22500  70.8487  57.2595 0061852 129.1201 231.5448 14.25327946562199
Source of the keplerian elements: AFSPC